#timestamp,LO_Frequency,Hit,StdDev 
1568973615.6,286047002.5,N
1568973635.5,286047000.0,N
1568973655.3,286047000.2,N
1568973675.2,286047001.2,N
1568973695.9,286046998.2,N
1568973715.7,286047000.7,N
1568973735.6,286046999.8,N
1568973755.4,286047000.6,N
1568973775.2,286046998.5,N
1568973795.1,286046998.1,N
1568973796.0,286046998.1,N
1568973815.8,286046998.2,N
1568973835.7,286046997.0,N
1568973855.5,286046997.5,N
1568973875.3,286046998.6,N
1568973895.2,286046996.6,N
1568973915.0,286046999.5,N
1568973915.9,286046999.5,N
1568973935.8,286046998.5,N
1568973955.6,286046996.6,N
1568973975.4,286046999.2,N
1568973995.3,286046996.9,N
1568974015.1,286046999.0,N
1568974035.9,286046999.6,N
1568974055.7,286047000.7,N
1568974075.5,286047000.3,N
1568974095.4,286047000.1,N
1568974115.2,286047000.0,N
1568974135.0,286047002.6,N
1568974135.9,286047002.6,N
1568974155.8,286047001.3,N
1568974175.6,286047001.9,N
1568974195.5,286047003.9,N
1568974215.3,286047011.9,Y
1568974235.1,286047004.1,P
1568974255.9,286047002.5,N
1568974275.7,286047000.6,N
1568974295.6,286047000.5,N
1568974315.4,286047000.1,N
1568974335.3,286047002.1,N
1568974355.1,286047004.2,N
1568974375.9,286047002.0,N
1568974395.7,286046999.8,N
1568974415.5,286046999.8,N
1568974435.4,286047000.9,N
1568974455.2,286047000.7,N
1568974475.0,286047000.3,N
1568974476.0,286047000.3,N
1568974495.8,286047000.0,N
1568974515.6,286047000.4,N
1568974535.5,286046999.8,N
1568974555.3,286047002.2,N
1568974575.1,286047001.4,N
1568974595.9,286047001.8,N
1568974615.7,286047004.4,Y
1568974635.6,286047004.2,P
1568974655.4,286047001.4,N
1568974675.2,286047001.5,N
1568974695.1,286047002.0,N
1568974696.0,286047002.0,N
1568974715.8,286047002.2,N
1568974735.7,286047002.3,N
1568974755.5,286047000.2,N
1568974775.3,286047002.5,N
1568974795.2,286047002.8,N
1568974815.0,286047002.8,N
1568974815.9,286047002.8,N
1568974835.7,286047001.4,N
1568974855.6,286047002.1,N
1568974875.4,286047002.0,N
1568974895.3,286047001.9,N
1568974915.1,286047001.6,N
1568974935.8,286047000.0,N
1568974955.7,286047002.7,N
1568974975.5,286047002.6,N
1568974995.4,286047002.8,Y
1568975015.2,286046999.1,P
1568975035.0,286047000.8,N
1568975035.9,286047000.8,N
1568975055.8,286047000.0,N
1568975075.6,286047001.0,N
1568975095.5,286047002.4,N
1568975115.3,286047000.3,N
1568975135.1,286046999.9,N
1568975155.9,286046999.7,N
1568975175.7,286047000.8,N
1568975195.5,286047000.9,N
1568975215.4,286047000.1,N
1568975235.2,286046999.9,N
1568975255.1,286047000.4,N
1568975256.0,286047000.4,N
1568975275.8,286047002.7,Y
1568975295.6,286047000.7,P
1568975315.5,286046998.5,P
1568975335.3,286047001.2,N
1568975355.2,286047000.7,N
1568975375.9,286047000.9,N
1568975395.7,286046998.7,N
1568975415.6,286046998.5,N
1568975435.4,286047000.7,N
1568975455.2,286047000.8,N
1568975475.1,286047001.2,N
1568975476.0,286047001.2,N
1568975495.8,286046999.2,N
1568975515.7,286046999.0,N
1568975535.5,286046998.6,N
1568975555.3,286046998.4,N
1568975575.2,286046999.3,N
1568975595.0,286046999.5,N
1568975595.9,286046999.5,N
1568975615.8,286046997.4,N
1568975635.6,286046997.7,N
1568975655.4,286046997.4,N
1568975675.3,286046997.1,N
1568975695.1,286046997.0,N
1568975715.8,286046997.4,N
1568975735.7,286046996.9,N
1568975755.5,286046994.9,Y
1568975775.4,286046997.1,P
1568975795.2,286046999.1,N
1568975815.0,286046999.8,N
1568975815.9,286046999.8,N
1568975835.8,286047002.4,N
1568975855.6,286047002.6,N
1568975875.5,286047000.1,N
1568975895.3,286047002.1,N
1568975915.1,286047004.4,N
1568975935.9,286047002.5,N
1568975955.7,286047001.5,N
1568975975.6,286047003.9,N
1568975995.4,286047004.1,N
1568976015.2,286047001.4,N
1568976035.1,286047001.6,N
1568976036.0,286047001.6,N
1568976055.8,286047002.0,N
1568976075.6,286047002.2,N
1568976095.5,286047001.6,N
1568976115.3,286047001.8,N
1568976135.2,286047002.1,N
1568976155.9,286047002.2,N
1568976175.7,286047004.3,N
1568976195.6,286047003.6,N
1568976215.4,286047003.1,N
1568976235.3,286047005.8,Y
1568976255.1,286047003.9,P
1568976256.0,286047003.9,P
1568976275.8,286047004.2,P
1568976295.7,286047004.0,Y
1568976315.5,286046999.8,P
1568976335.3,286047002.6,N
1568976355.2,286046999.8,N
1568976375.0,286047002.7,N
1568976375.9,286047002.7,N
1568976395.8,286047000.3,N
1568976415.6,286046998.5,N
1568976435.4,286046999.6,N
1568976455.3,286046996.6,N
1568976475.1,286046997.0,N
1568976495.9,286046997.1,N
1568976515.7,286046996.7,N
1568976535.5,286046996.5,N
1568976555.4,286046997.2,N
1568976575.2,286046999.1,N
1568976595.0,286046996.5,N
1568976595.9,286046996.5,N
1568976615.8,286046997.0,N
1568976635.6,286046997.5,N
1568976655.5,286046997.8,N
1568976675.3,286046995.6,N
1568976695.1,286046995.7,N
1568976715.9,286046995.6,N
1568976735.7,286046996.2,N
1568976755.5,286046996.3,N
1568976775.4,286046995.2,N
1568976795.2,286046995.7,N
1568976815.1,286046995.0,N
1568976816.0,286046995.0,N
1568976835.8,286046997.3,N
1568976855.6,286046995.0,N
1568976875.5,286046995.2,N
1568976895.3,286046995.8,N
1568976915.2,286046996.2,N
1568976935.0,286046995.9,N
1568976935.9,286046995.9,Y
1568976955.8,286047001.2,P
1568976975.6,286047000.5,N
1568976995.4,286046998.3,N
1568977015.3,286046998.4,N
1568977035.1,286047000.8,N
1568977055.8,286047000.1,N
1568977075.7,286046999.8,N
1568977095.5,286047000.5,N
1568977115.4,286047000.9,N
1568977135.2,286047000.3,N
1568977155.0,286047000.1,N
1568977155.9,286047000.1,N
1568977175.8,286046998.3,N
1568977195.6,286047000.7,N
